Data supplied by UK-AIR on 8/11/2015
All Data GMT hour ending 
Status: R =Ratified P=Provisional,P*=As supplied
,,Swansea Roadside,,,,,,,,,,,,,,,,,,,,,,,
Date,time,"PM<sub>10</sub> particulate matter (Hourly measured)",status,unit,"Nitric oxide",status,unit,"Nitrogen dioxide",status,unit,"Nitrogen oxides as nitrogen dioxide",status,unit,"PM<sub>2.5</sub> particulate matter (Hourly measured)",status,unit
 
01-01-2014,01:00,24.731,R,ugm-3 (Ref.eq),2.95070,R,ugm-3,12.57788,R,ugm-3,17.10221,R,ugm-3,8.000,R,ugm-3 (BAM)
01-01-2014,02:00,25.951,R,ugm-3 (Ref.eq),2.85102,R,ugm-3,8.68944,R,ugm-3,13.06094,R,ugm-3,7.000,R,ugm-3 (BAM)
01-01-2014,03:00,20.255,R,ugm-3 (Ref.eq),1.61307,R,ugm-3,5.08199,R,ugm-3,7.55533,R,ugm-3,4.000,R,ugm-3 (BAM)
01-01-2014,04:00,19.644,R,ugm-3 (Ref.eq),2.77555,R,ugm-3,7.10685,R,ugm-3,11.36264,R,ugm-3,6.000,R,ugm-3 (BAM)
01-01-2014,05:00,14.559,R,ugm-3 (Ref.eq),1.42535,R,ugm-3,5.07673,R,ugm-3,7.26224,R,ugm-3,3.000,R,ugm-3 (BAM)
01-01-2014,06:00,14.559,R,ugm-3 (Ref.eq),1.50050,R,ugm-3,5.48888,R,ugm-3,7.78961,R,ugm-3,4.000,R,ugm-3 (BAM)
01-01-2014,07:00,22.086,R,ugm-3 (Ref.eq),2.81329,R,ugm-3,10.91416,R,ugm-3,15.22780,R,ugm-3,7.000,R,ugm-3 (BAM)
01-01-2014,08:00,17.407,R,ugm-3 (Ref.eq),1.42535,R,ugm-3,7.18574,R,ugm-3,9.37125,R,ugm-3,69.000,R,ugm-3 (BAM)
01-01-2014,09:00,14.151,R,ugm-3 (Ref.eq),2.02562,R,ugm-3,8.54983,R,ugm-3,11.65573,R,ugm-3,4.000,R,ugm-3 (BAM)
01-01-2014,10:00,13.134,R,ugm-3 (Ref.eq),2.17592,R,ugm-3,11.18908,R,ugm-3,14.52544,R,ugm-3,34.000,R,ugm-3 (BAM)
01-01-2014,11:00,17.407,R,ugm-3 (Ref.eq),2.40074,R,ugm-3,10.43412,R,ugm-3,14.11521,R,ugm-3,-2.000,R,ugm-3 (BAM)
01-01-2014,12:00,7.031,R,ugm-3 (Ref.eq),4.12669,R,ugm-3,9.95552,R,ugm-3,16.28303,R,ugm-3,2.000,R,ugm-3 (BAM)
01-01-2014,13:00,18.628,R,ugm-3 (Ref.eq),2.77555,R,ugm-3,12.02676,R,ugm-3,16.28255,R,ugm-3,5.000,R,ugm-3 (BAM)
01-01-2014,14:00,13.948,R,ugm-3 (Ref.eq),2.32559,R,ugm-3,9.32009,R,ugm-3,12.88595,R,ugm-3,3.000,R,ugm-3 (BAM)
01-01-2014,15:00,10.083,R,ugm-3 (Ref.eq),3.33871,R,ugm-3,20.30023,R,ugm-3,25.41952,R,ugm-3,3.000,R,ugm-3 (BAM)
01-01-2014,16:00,10.490,R,ugm-3 (Ref.eq),4.05154,R,ugm-3,12.35379,R,ugm-3,18.56607,R,ugm-3,3.000,R,ugm-3 (BAM)
01-01-2014,17:00,31.037,R,ugm-3 (Ref.eq),2.28817,R,ugm-3,7.73702,R,ugm-3,11.24550,R,ugm-3,5.000,R,ugm-3 (BAM)
01-01-2014,18:00,25.137,R,ugm-3 (Ref.eq),2.66330,R,ugm-3,9.21203,R,ugm-3,13.29570,R,ugm-3,7.000,R,ugm-3 (BAM)
01-01-2014,19:00,24.934,R,ugm-3 (Ref.eq),1.98820,R,ugm-3,8.25531,R,ugm-3,11.30383,R,ugm-3,8.000,R,ugm-3 (BAM)
01-01-2014,20:00,32.665,R,ugm-3 (Ref.eq),1.83821,R,ugm-3,6.72770,R,ugm-3,9.54624,R,ugm-3,8.000,R,ugm-3 (BAM)
01-01-2014,21:00,20.662,R,ugm-3 (Ref.eq),1.61307,R,ugm-3,6.13578,R,ugm-3,8.60912,R,ugm-3,6.000,R,ugm-3 (BAM)
01-01-2014,22:00,13.744,R,ugm-3 (Ref.eq),3.03842,R,ugm-3,14.49388,R,ugm-3,19.15273,R,ugm-3,3.000,R,ugm-3 (BAM)
01-01-2014,23:00,8.048,R,ugm-3 (Ref.eq),1.20053,R,ugm-3,5.83217,R,ugm-3,7.67295,R,ugm-3,1.000,R,ugm-3 (BAM)
01-01-2014,24:00,18.017,R,ugm-3 (Ref.eq),0.45028,R,ugm-3,4.63973,R,ugm-3,5.33014,R,ugm-3,2.000,R,ugm-3 (BAM)
02-01-2014,01:00,10.286,R,ugm-3 (Ref.eq),0.65026,R,ugm-3,4.86030,R,ugm-3,5.85735,R,ugm-3,2.000,R,ugm-3 (BAM)
02-01-2014,02:00,10.693,R,ugm-3 (Ref.eq),0.71314,R,ugm-3,2.47860,R,ugm-3,3.57207,R,ugm-3,3.000,R,ugm-3 (BAM)
02-01-2014,03:00,10.490,R,ugm-3 (Ref.eq),0.90055,R,ugm-3,3.83217,R,ugm-3,5.21300,R,ugm-3,3.000,R,ugm-3 (BAM)
02-01-2014,04:00,14.762,R,ugm-3 (Ref.eq),1.80079,R,ugm-3,10.53357,R,ugm-3,13.29474,R,ugm-3,0.000,R,ugm-3 (BAM)
02-01-2014,05:00,17.610,R,ugm-3 (Ref.eq),1.46308,R,ugm-3,9.64617,R,ugm-3,11.88953,R,ugm-3,1.000,R,ugm-3 (BAM)
02-01-2014,06:00,17.813,R,ugm-3 (Ref.eq),11.66631,R,ugm-3,9.11258,R,ugm-3,27.00068,R,ugm-3,2.000,R,ugm-3 (BAM)
02-01-2014,07:00,15.575,R,ugm-3 (Ref.eq),6.48939,R,ugm-3,14.12238,R,ugm-3,24.07264,R,ugm-3,4.000,R,ugm-3 (BAM)
02-01-2014,08:00,17.203,R,ugm-3 (Ref.eq),10.05324,R,ugm-3,26.22850,R,ugm-3,41.64325,R,ugm-3,5.000,R,ugm-3 (BAM)
02-01-2014,09:00,16.999,R,ugm-3 (Ref.eq),19.84423,R,ugm-3,38.27630,R,ugm-3,68.70369,R,ugm-3,6.000,R,ugm-3 (BAM)
02-01-2014,10:00,17.407,R,ugm-3 (Ref.eq),13.61709,R,ugm-3,25.97701,R,ugm-3,46.85625,R,ugm-3,4.000,R,ugm-3 (BAM)
02-01-2014,11:00,51.788,R,ugm-3 (Ref.eq),23.10779,R,ugm-3,32.04155,R,ugm-3,67.47300,R,ugm-3,2.000,R,ugm-3 (BAM)
02-01-2014,12:00,17.610,R,ugm-3 (Ref.eq),10.24096,R,ugm-3,22.89502,R,ugm-3,38.59760,R,ugm-3,4.000,R,ugm-3 (BAM)
02-01-2014,13:00,17.610,R,ugm-3 (Ref.eq),15.86784,R,ugm-3,24.86824,R,ugm-3,49.19858,R,ugm-3,7.000,R,ugm-3 (BAM)
02-01-2014,14:00,15.575,R,ugm-3 (Ref.eq),11.40406,R,ugm-3,24.56702,R,ugm-3,42.05301,R,ugm-3,7.000,R,ugm-3 (BAM)
02-01-2014,15:00,27.782,R,ugm-3 (Ref.eq),19.91938,R,ugm-3,39.38985,R,ugm-3,69.93248,R,ugm-3,7.000,R,ugm-3 (BAM)
02-01-2014,16:00,27.986,R,ugm-3 (Ref.eq),14.74246,R,ugm-3,38.71808,R,ugm-3,61.32288,R,ugm-3,6.000,R,ugm-3 (BAM)
02-01-2014,17:00,22.289,R,ugm-3 (Ref.eq),24.90827,R,ugm-3,52.12375,R,ugm-3,90.31590,R,ugm-3,6.000,R,ugm-3 (BAM)
02-01-2014,18:00,22.899,R,ugm-3 (Ref.eq),14.70473,R,ugm-3,40.06448,R,ugm-3,62.61143,R,ugm-3,10.000,R,ugm-3 (BAM)
02-01-2014,19:00,18.220,R,ugm-3 (Ref.eq),9.82841,R,ugm-3,28.50629,R,ugm-3,43.57631,R,ugm-3,10.000,R,ugm-3 (BAM)
02-01-2014,20:00,19.238,R,ugm-3 (Ref.eq),8.70304,R,ugm-3,25.13647,R,ugm-3,38.48093,R,ugm-3,8.000,R,ugm-3 (BAM)
02-01-2014,21:00,22.696,R,ugm-3 (Ref.eq),6.90256,R,ugm-3,23.68010,R,ugm-3,34.26387,R,ugm-3,6.000,R,ugm-3 (BAM)
02-01-2014,22:00,13.338,R,ugm-3 (Ref.eq),3.26356,R,ugm-3,10.22423,R,ugm-3,15.22828,R,ugm-3,6.000,R,ugm-3 (BAM)
02-01-2014,23:00,23.510,R,ugm-3 (Ref.eq),0.97539,R,ugm-3,4.94716,R,ugm-3,6.44273,R,ugm-3,6.000,R,ugm-3 (BAM)
02-01-2014,24:00,30.630,R,ugm-3 (Ref.eq),0.93766,R,ugm-3,3.54099,R,ugm-3,4.97872,R,ugm-3,6.000,R,ugm-3 (BAM)
03-01-2014,01:00,31.444,R,ugm-3 (Ref.eq),0.60037,R,ugm-3,2.43780,R,ugm-3,3.35835,R,ugm-3,7.000,R,ugm-3 (BAM)
03-01-2014,02:00,37.140,R,ugm-3 (Ref.eq),0.90024,R,ugm-3,1.02128,R,ugm-3,2.40162,R,ugm-3,17.000,R,ugm-3 (BAM)
03-01-2014,03:00,50.161,R,ugm-3 (Ref.eq),0.67510,R,ugm-3,0.54698,R,ugm-3,1.58212,R,ugm-3,15.000,R,ugm-3 (BAM)
03-01-2014,04:00,22.696,R,ugm-3 (Ref.eq),0.33740,R,ugm-3,0.18503,R,ugm-3,0.70237,R,ugm-3,5.000,R,ugm-3 (BAM)
03-01-2014,05:00,18.831,R,ugm-3 (Ref.eq),1.20084,R,ugm-3,2.72723,R,ugm-3,4.56848,R,ugm-3,5.000,R,ugm-3 (BAM)
03-01-2014,06:00,20.662,R,ugm-3 (Ref.eq),1.80048,R,ugm-3,3.15467,R,ugm-3,5.91536,R,ugm-3,5.000,R,ugm-3 (BAM)
03-01-2014,07:00,23.510,R,ugm-3 (Ref.eq),2.17560,R,ugm-3,4.51302,R,ugm-3,7.84890,R,ugm-3,5.000,R,ugm-3 (BAM)
03-01-2014,08:00,32.055,R,ugm-3 (Ref.eq),4.72633,R,ugm-3,9.21108,R,ugm-3,16.45802,R,ugm-3,8.000,R,ugm-3 (BAM)
03-01-2014,09:00,23.917,R,ugm-3 (Ref.eq),7.68992,R,ugm-3,15.73701,R,ugm-3,27.52805,R,ugm-3,10.000,R,ugm-3 (BAM)
03-01-2014,10:00,23.917,R,ugm-3 (Ref.eq),6.37745,R,ugm-3,12.71239,R,ugm-3,22.49100,R,ugm-3,9.000,R,ugm-3 (BAM)
03-01-2014,11:00,25.544,R,ugm-3 (Ref.eq),6.07685,R,ugm-3,15.51563,R,ugm-3,24.83333,R,ugm-3,7.000,R,ugm-3 (BAM)
03-01-2014,12:00,26.358,R,ugm-3 (Ref.eq),5.92717,R,ugm-3,13.87088,R,ugm-3,22.95908,R,ugm-3,9.000,R,ugm-3 (BAM)
03-01-2014,13:00,20.458,R,ugm-3 (Ref.eq),6.67742,R,ugm-3,14.53691,R,ugm-3,24.77548,R,ugm-3,9.000,R,ugm-3 (BAM)
03-01-2014,14:00,19.238,R,ugm-3 (Ref.eq),5.47658,R,ugm-3,15.44105,R,ugm-3,23.83836,R,ugm-3,8.000,R,ugm-3 (BAM)
03-01-2014,15:00,22.696,R,ugm-3 (Ref.eq),6.22683,R,ugm-3,13.82212,R,ugm-3,23.36979,R,ugm-3,10.000,R,ugm-3 (BAM)
03-01-2014,16:00,23.103,R,ugm-3 (Ref.eq),7.91474,R,ugm-3,14.33801,R,ugm-3,26.47378,R,ugm-3,10.000,R,ugm-3 (BAM)
03-01-2014,17:00,25.747,R,ugm-3 (Ref.eq),5.85202,R,ugm-3,11.64378,R,ugm-3,20.61675,R,ugm-3,11.000,R,ugm-3 (BAM)
03-01-2014,18:00,32.258,R,ugm-3 (Ref.eq),6.00232,R,ugm-3,11.35547,R,ugm-3,20.55890,R,ugm-3,12.000,R,ugm-3 (BAM)
03-01-2014,19:00,36.124,R,ugm-3 (Ref.eq),4.05154,R,ugm-3,8.72291,R,ugm-3,14.93519,R,ugm-3,13.000,R,ugm-3 (BAM)
03-01-2014,20:00,29.613,R,ugm-3 (Ref.eq),3.07615,R,ugm-3,7.28997,R,ugm-3,12.00668,R,ugm-3,13.000,R,ugm-3 (BAM)
03-01-2014,21:00,30.834,R,ugm-3 (Ref.eq),2.62588,R,ugm-3,5.11020,R,ugm-3,9.13649,R,ugm-3,13.000,R,ugm-3 (BAM)
03-01-2014,22:00,33.479,R,ugm-3 (Ref.eq),2.66330,R,ugm-3,6.10757,R,ugm-3,10.19123,R,ugm-3,13.000,R,ugm-3 (BAM)
03-01-2014,23:00,25.544,R,ugm-3 (Ref.eq),1.87594,R,ugm-3,8.42743,R,ugm-3,11.30383,R,ugm-3,10.000,R,ugm-3 (BAM)
03-01-2014,24:00,32.868,R,ugm-3 (Ref.eq),2.66361,R,ugm-3,5.69686,R,ugm-3,9.78100,R,ugm-3,10.000,R,ugm-3 (BAM)
04-01-2014,01:00,37.344,R,ugm-3 (Ref.eq),2.29919,R,ugm-3,9.82898,R,ugm-3,13.35435,R,ugm-3,11.000,R,ugm-3 (BAM)
04-01-2014,02:00,24.120,R,ugm-3 (Ref.eq),1.38669,R,ugm-3,4.66841,R,ugm-3,6.79463,R,ugm-3,7.000,R,ugm-3 (BAM)
04-01-2014,03:00,30.224,R,ugm-3 (Ref.eq),1.87407,R,ugm-3,13.81925,R,ugm-3,16.69278,R,ugm-3,4.000,R,ugm-3 (BAM)
04-01-2014,04:00,31.240,R,ugm-3 (Ref.eq),1.61182,R,ugm-3,11.11688,R,ugm-3,13.58831,R,ugm-3,4.000,R,ugm-3 (BAM)
04-01-2014,05:00,18.017,R,ugm-3 (Ref.eq),1.94891,R,ugm-3,13.93830,R,ugm-3,16.92658,R,ugm-3,3.000,R,ugm-3 (BAM)
04-01-2014,06:00,20.865,R,ugm-3 (Ref.eq),6.67150,R,ugm-3,39.08720,R,ugm-3,49.31668,R,ugm-3,6.000,R,ugm-3 (BAM)
04-01-2014,07:00,24.120,R,ugm-3 (Ref.eq),7.60853,R,ugm-3,41.10536,R,ugm-3,52.77161,R,ugm-3,16.000,R,ugm-3 (BAM)
04-01-2014,08:00,19.848,R,ugm-3 (Ref.eq),15.55508,R,ugm-3,37.47257,R,ugm-3,61.32336,R,ugm-3,10.000,R,ugm-3 (BAM)
04-01-2014,09:00,11.914,R,ugm-3 (Ref.eq),9.82031,R,ugm-3,28.51824,R,ugm-3,43.57583,R,ugm-3,6.000,R,ugm-3 (BAM)
04-01-2014,10:00,10.693,R,ugm-3 (Ref.eq),59.40796,R,ugm-3,83.38978,R,ugm-3,174.48072,R,ugm-3,5.000,R,ugm-3 (BAM)
04-01-2014,11:00,9.879,R,ugm-3 (Ref.eq),61.43202,R,ugm-3,100.72707,R,ugm-3,194.92152,R,ugm-3,7.000,R,ugm-3 (BAM)
04-01-2014,12:00,15.779,R,ugm-3 (Ref.eq),87.48126,R,ugm-3,110.68785,R,ugm-3,244.82391,R,ugm-3,8.000,R,ugm-3 (BAM)
04-01-2014,13:00,20.458,R,ugm-3 (Ref.eq),76.49940,R,ugm-3,109.19371,R,ugm-3,226.49116,R,ugm-3,11.000,R,ugm-3 (BAM)
04-01-2014,14:00,20.662,R,ugm-3 (Ref.eq),57.12166,R,ugm-3,86.19255,R,ugm-3,173.77788,R,ugm-3,9.000,R,ugm-3 (BAM)
04-01-2014,15:00,21.679,R,ugm-3 (Ref.eq),25.89956,R,ugm-3,56.98772,R,ugm-3,96.69983,R,ugm-3,7.000,R,ugm-3 (BAM)
04-01-2014,16:00,11.303,R,ugm-3 (Ref.eq),14.43033,R,ugm-3,49.09483,R,ugm-3,71.22102,R,ugm-3,6.000,R,ugm-3 (BAM)
04-01-2014,17:00,20.458,R,ugm-3 (Ref.eq),151.12474,R,ugm-3,149.63018,R,ugm-3,381.35154,R,ugm-3,9.000,R,ugm-3 (BAM)
04-01-2014,18:00,11.507,R,ugm-3 (Ref.eq),40.29216,R,ugm-3,66.19545,R,ugm-3,127.97589,R,ugm-3,9.000,R,ugm-3 (BAM)
04-01-2014,19:00,10.693,R,ugm-3 (Ref.eq),8.73328,R,ugm-3,23.39131,R,ugm-3,36.78216,R,ugm-3,4.000,R,ugm-3 (BAM)
04-01-2014,20:00,8.862,R,ugm-3 (Ref.eq),17.35369,R,ugm-3,49.76755,R,ugm-3,76.37617,R,ugm-3,4.000,R,ugm-3 (BAM)
04-01-2014,21:00,14.151,R,ugm-3 (Ref.eq),42.72876,R,ugm-3,98.48084,R,ugm-3,163.99735,R,ugm-3,7.000,R,ugm-3 (BAM)
04-01-2014,22:00,12.931,R,ugm-3 (Ref.eq),39.61768,R,ugm-3,65.88276,R,ugm-3,126.62902,R,ugm-3,9.000,R,ugm-3 (BAM)
04-01-2014,23:00,10.490,R,ugm-3 (Ref.eq),3.48558,R,ugm-3,17.38080,R,ugm-3,22.72528,R,ugm-3,7.000,R,ugm-3 (BAM)
04-01-2014,24:00,10.083,R,ugm-3 (Ref.eq),11.54407,R,ugm-3,41.45583,R,ugm-3,59.15649,R,ugm-3,5.000,R,ugm-3 (BAM)
05-01-2014,01:00,21.679,R,ugm-3 (Ref.eq),37.83144,R,ugm-3,76.23544,R,ugm-3,134.24284,R,ugm-3,20.000,R,ugm-3 (BAM)
05-01-2014,02:00,18.423,R,ugm-3 (Ref.eq),59.82051,R,ugm-3,70.69174,R,ugm-3,162.41524,R,ugm-3,15.000,R,ugm-3 (BAM)
05-01-2014,03:00,14.151,R,ugm-3 (Ref.eq),26.76207,R,ugm-3,59.35539,R,ugm-3,100.38999,R,ugm-3,10.000,R,ugm-3 (BAM)
05-01-2014,04:00,13.338,R,ugm-3 (Ref.eq),19.67772,R,ugm-3,54.34464,R,ugm-3,84.51672,R,ugm-3,10.000,R,ugm-3 (BAM)
05-01-2014,05:00,18.220,R,ugm-3 (Ref.eq),20.23994,R,ugm-3,48.73863,R,ugm-3,79.77277,R,ugm-3,11.000,R,ugm-3 (BAM)
05-01-2014,06:00,13.338,R,ugm-3 (Ref.eq),14.58031,R,ugm-3,43.12544,R,ugm-3,65.48161,R,ugm-3,13.000,R,ugm-3 (BAM)
05-01-2014,07:00,12.117,R,ugm-3 (Ref.eq),15.06738,R,ugm-3,30.84002,R,ugm-3,53.94302,R,ugm-3,8.000,R,ugm-3 (BAM)
05-01-2014,08:00,12.931,R,ugm-3 (Ref.eq),2.32372,R,ugm-3,9.84985,R,ugm-3,13.41284,R,ugm-3,0.000,R,ugm-3 (BAM)
05-01-2014,09:00,11.914,R,ugm-3 (Ref.eq),4.46035,R,ugm-3,11.66912,R,ugm-3,18.50822,R,ugm-3,-1.000,R,ugm-3 (BAM)
05-01-2014,10:00,18.628,R,ugm-3 (Ref.eq),7.23372,R,ugm-3,26.62774,R,ugm-3,37.71928,R,ugm-3,3.000,R,ugm-3 (BAM)
05-01-2014,11:00,16.999,R,ugm-3 (Ref.eq),11.76921,R,ugm-3,40.11469,R,ugm-3,58.16056,R,ugm-3,7.000,R,ugm-3 (BAM)
05-01-2014,12:00,16.389,R,ugm-3 (Ref.eq),9.03295,R,ugm-3,20.99877,R,ugm-3,34.84910,R,ugm-3,7.000,R,ugm-3 (BAM)
05-01-2014,13:00,12.320,R,ugm-3 (Ref.eq),11.39440,R,ugm-3,31.66957,R,ugm-3,49.14073,R,ugm-3,4.000,R,ugm-3 (BAM)
05-01-2014,14:00,19.441,R,ugm-3 (Ref.eq),16.30439,R,ugm-3,48.79935,R,ugm-3,73.79907,R,ugm-3,5.000,R,ugm-3 (BAM)
05-01-2014,15:00,15.169,R,ugm-3 (Ref.eq),14.84256,R,ugm-3,46.17923,R,ugm-3,68.93750,R,ugm-3,6.000,R,ugm-3 (BAM)
05-01-2014,16:00,12.320,R,ugm-3 (Ref.eq),10.49478,R,ugm-3,32.28683,R,ugm-3,48.37860,R,ugm-3,7.000,R,ugm-3 (BAM)
05-01-2014,17:00,16.796,R,ugm-3 (Ref.eq),13.15621,R,ugm-3,42.43933,R,ugm-3,62.61190,R,ugm-3,9.000,R,ugm-3 (BAM)
05-01-2014,18:00,18.220,R,ugm-3 (Ref.eq),5.24739,R,ugm-3,20.30167,R,ugm-3,28.34755,R,ugm-3,6.000,R,ugm-3 (BAM)
05-01-2014,19:00,12.117,R,ugm-3 (Ref.eq),3.41074,R,ugm-3,17.14413,R,ugm-3,22.37386,R,ugm-3,5.000,R,ugm-3 (BAM)
05-01-2014,20:00,10.286,R,ugm-3 (Ref.eq),2.47371,R,ugm-3,7.62801,R,ugm-3,11.42097,R,ugm-3,6.000,R,ugm-3 (BAM)
05-01-2014,21:00,22.696,R,ugm-3 (Ref.eq),1.49926,R,ugm-3,5.13984,R,ugm-3,7.43867,R,ugm-3,5.000,R,ugm-3 (BAM)
05-01-2014,22:00,22.086,R,ugm-3 (Ref.eq),1.38669,R,ugm-3,3.61367,R,ugm-3,5.73989,R,ugm-3,5.000,R,ugm-3 (BAM)
05-01-2014,23:00,21.475,R,ugm-3 (Ref.eq),1.38700,R,ugm-3,4.78460,R,ugm-3,6.91130,R,ugm-3,5.000,R,ugm-3 (BAM)
05-01-2014,24:00,23.713,R,ugm-3 (Ref.eq),1.27443,R,ugm-3,4.25436,R,ugm-3,6.20845,R,ugm-3,5.000,R,ugm-3 (BAM)
06-01-2014,01:00,30.834,R,ugm-3 (Ref.eq),0.59870,R,ugm-3,1.89593,R,ugm-3,2.81393,R,ugm-3,5.000,R,ugm-3 (BAM)
06-01-2014,02:00,24.527,R,ugm-3 (Ref.eq),0.71127,R,ugm-3,1.43007,R,ugm-3,2.52068,R,ugm-3,6.000,R,ugm-3 (BAM)
06-01-2014,03:00,31.444,R,ugm-3 (Ref.eq),0.37419,R,ugm-3,0.77456,R,ugm-3,1.34831,R,ugm-3,8.000,R,ugm-3 (BAM)
06-01-2014,04:00,29.816,R,ugm-3 (Ref.eq),0.33677,R,ugm-3,0.89027,R,ugm-3,1.40664,R,ugm-3,8.000,R,ugm-3 (BAM)
06-01-2014,05:00,31.648,R,ugm-3 (Ref.eq),1.16092,R,ugm-3,2.73392,R,ugm-3,4.51398,R,ugm-3,9.000,R,ugm-3 (BAM)
06-01-2014,06:00,37.954,R,ugm-3 (Ref.eq),1.79736,R,ugm-3,4.45421,R,ugm-3,7.21013,R,ugm-3,10.000,R,ugm-3 (BAM)
06-01-2014,07:00,42.837,R,ugm-3 (Ref.eq),3.93211,R,ugm-3,7.68729,R,ugm-3,13.71645,R,ugm-3,11.000,R,ugm-3 (BAM)
06-01-2014,08:00,44.057,R,ugm-3 (Ref.eq),7.49004,R,ugm-3,11.90388,R,ugm-3,23.38844,R,ugm-3,13.000,R,ugm-3 (BAM)
06-01-2014,09:00,47.516,R,ugm-3 (Ref.eq),12.13373,R,ugm-3,24.77213,R,ugm-3,43.37693,R,ugm-3,15.000,R,ugm-3 (BAM)
06-01-2014,10:00,42.227,R,ugm-3 (Ref.eq),8.83806,R,ugm-3,15.52328,R,ugm-3,29.07478,R,ugm-3,20.000,R,ugm-3 (BAM)
06-01-2014,11:00,45.278,R,ugm-3 (Ref.eq),6.85329,R,ugm-3,16.22183,R,ugm-3,26.73006,R,ugm-3,17.000,R,ugm-3 (BAM)
06-01-2014,12:00,43.651,R,ugm-3 (Ref.eq),7.07780,R,ugm-3,17.28422,R,ugm-3,28.13670,R,ugm-3,17.000,R,ugm-3 (BAM)
06-01-2014,13:00,45.278,R,ugm-3 (Ref.eq),9.13772,R,ugm-3,13.01217,R,ugm-3,27.02315,R,ugm-3,19.000,R,ugm-3 (BAM)
06-01-2014,14:00,51.381,R,ugm-3 (Ref.eq),6.29169,R,ugm-3,10.45898,R,ugm-3,20.10611,R,ugm-3,24.000,R,ugm-3 (BAM)
06-01-2014,15:00,46.296,R,ugm-3 (Ref.eq),8.38872,R,ugm-3,12.10852,R,ugm-3,24.97103,R,ugm-3,17.000,R,ugm-3 (BAM)
06-01-2014,16:00,39.582,R,ugm-3 (Ref.eq),7.64002,R,ugm-3,15.36694,R,ugm-3,27.08148,R,ugm-3,15.000,R,ugm-3 (BAM)
06-01-2014,17:00,35.309,R,ugm-3 (Ref.eq),6.85329,R,ugm-3,16.98348,R,ugm-3,27.49171,R,ugm-3,10.000,R,ugm-3 (BAM)
06-01-2014,18:00,43.040,R,ugm-3 (Ref.eq),5.76752,R,ugm-3,13.78291,R,ugm-3,22.62631,R,ugm-3,12.000,R,ugm-3 (BAM)
06-01-2014,19:00,37.954,R,ugm-3 (Ref.eq),6.02976,R,ugm-3,10.39157,R,ugm-3,19.63707,R,ugm-3,14.000,R,ugm-3 (BAM)
06-01-2014,20:00,37.548,R,ugm-3 (Ref.eq),2.17217,R,ugm-3,6.04876,R,ugm-3,9.37938,R,ugm-3,15.000,R,ugm-3 (BAM)
06-01-2014,21:00,37.344,R,ugm-3 (Ref.eq),2.92118,R,ugm-3,8.29977,R,ugm-3,12.77885,R,ugm-3,12.000,R,ugm-3 (BAM)
06-01-2014,22:00,34.903,R,ugm-3 (Ref.eq),2.09734,R,ugm-3,5.57685,R,ugm-3,8.79272,R,ugm-3,11.000,R,ugm-3 (BAM)
06-01-2014,23:00,39.175,R,ugm-3 (Ref.eq),1.38575,R,ugm-3,4.32321,R,ugm-3,6.44799,R,ugm-3,13.000,R,ugm-3 (BAM)
06-01-2014,24:00,36.734,R,ugm-3 (Ref.eq),1.42286,R,ugm-3,2.33182,R,ugm-3,4.51350,R,ugm-3,12.000,R,ugm-3 (BAM)
07-01-2014,01:00,40.192,R,ugm-3 (Ref.eq),0.64860,R,ugm-3,1.34959,R,ugm-3,2.34409,R,ugm-3,11.000,R,ugm-3 (BAM)
07-01-2014,02:00,34.699,R,ugm-3 (Ref.eq),0.67385,R,ugm-3,0.96008,R,ugm-3,1.99330,R,ugm-3,11.000,R,ugm-3 (BAM)
07-01-2014,03:00,33.479,R,ugm-3 (Ref.eq),0.63644,R,ugm-3,0.84150,R,ugm-3,1.81735,R,ugm-3,10.000,R,ugm-3 (BAM)
07-01-2014,04:00,15.372,R,ugm-3 (Ref.eq),0.37419,R,ugm-3,0.54028,R,ugm-3,1.11403,R,ugm-3,4.000,R,ugm-3 (BAM)
07-01-2014,05:00,17.610,R,ugm-3 (Ref.eq),1.19866,R,ugm-3,2.55845,R,ugm-3,4.39636,R,ugm-3,0.000,R,ugm-3 (BAM)
07-01-2014,06:00,19.238,R,ugm-3 (Ref.eq),1.79798,R,ugm-3,3.98422,R,ugm-3,6.74108,R,ugm-3,2.000,R,ugm-3 (BAM)
07-01-2014,07:00,24.323,R,ugm-3 (Ref.eq),3.66987,R,ugm-3,8.79320,R,ugm-3,14.42025,R,ugm-3,6.000,R,ugm-3 (BAM)
07-01-2014,08:00,22.086,R,ugm-3 (Ref.eq),7.52746,R,ugm-3,14.13338,R,ugm-3,25.67531,R,ugm-3,8.000,R,ugm-3 (BAM)
07-01-2014,09:00,26.155,R,ugm-3 (Ref.eq),10.59831,R,ugm-3,16.81040,R,ugm-3,33.06091,R,ugm-3,7.000,R,ugm-3 (BAM)
07-01-2014,10:00,27.171,R,ugm-3 (Ref.eq),12.24630,R,ugm-3,20.43841,R,ugm-3,39.21581,R,ugm-3,7.000,R,ugm-3 (BAM)
07-01-2014,11:00,28.596,R,ugm-3 (Ref.eq),8.12678,R,ugm-3,15.20677,R,ugm-3,27.66766,R,ugm-3,8.000,R,ugm-3 (BAM)
07-01-2014,12:00,34.495,R,ugm-3 (Ref.eq),8.76291,R,ugm-3,14.29020,R,ugm-3,27.72647,R,ugm-3,12.000,R,ugm-3 (BAM)
07-01-2014,13:00,32.868,R,ugm-3 (Ref.eq),6.77845,R,ugm-3,11.52951,R,ugm-3,21.92299,R,ugm-3,10.000,R,ugm-3 (BAM)
07-01-2014,14:00,29.003,R,ugm-3 (Ref.eq),7.11554,R,ugm-3,12.00954,R,ugm-3,22.91988,R,ugm-3,10.000,R,ugm-3 (BAM)
07-01-2014,15:00,35.309,R,ugm-3 (Ref.eq),8.95063,R,ugm-3,13.00596,R,ugm-3,26.73006,R,ugm-3,13.000,R,ugm-3 (BAM)
07-01-2014,16:00,37.548,R,ugm-3 (Ref.eq),7.63971,R,ugm-3,14.54695,R,ugm-3,26.26102,R,ugm-3,13.000,R,ugm-3 (BAM)
07-01-2014,17:00,35.513,R,ugm-3 (Ref.eq),7.37809,R,ugm-3,17.17521,R,ugm-3,28.48812,R,ugm-3,12.000,R,ugm-3 (BAM)
07-01-2014,18:00,35.309,R,ugm-3 (Ref.eq),6.32911,R,ugm-3,15.73557,R,ugm-3,25.44008,R,ugm-3,10.000,R,ugm-3 (BAM)
07-01-2014,19:00,34.089,R,ugm-3 (Ref.eq),6.92844,R,ugm-3,17.86514,R,ugm-3,28.48860,R,ugm-3,9.000,R,ugm-3 (BAM)
07-01-2014,20:00,18.831,R,ugm-3 (Ref.eq),4.41918,R,ugm-3,14.15059,R,ugm-3,20.92658,R,ugm-3,6.000,R,ugm-3 (BAM)
07-01-2014,21:00,19.238,R,ugm-3 (Ref.eq),3.10827,R,ugm-3,12.35045,R,ugm-3,17.11640,R,ugm-3,5.000,R,ugm-3 (BAM)
07-01-2014,22:00,26.765,R,ugm-3 (Ref.eq),3.25826,R,ugm-3,10.24478,R,ugm-3,15.24071,R,ugm-3,8.000,R,ugm-3 (BAM)
07-01-2014,23:00,25.544,R,ugm-3 (Ref.eq),2.02219,R,ugm-3,5.63327,R,ugm-3,8.73391,R,ugm-3,9.000,R,ugm-3 (BAM)
07-01-2014,24:00,25.951,R,ugm-3 (Ref.eq),1.19866,R,ugm-3,3.49653,R,ugm-3,5.33444,R,ugm-3,9.000,R,ugm-3 (BAM)
08-01-2014,01:00,27.579,R,ugm-3 (Ref.eq),1.24855,R,ugm-3,2.14965,R,ugm-3,4.06406,R,ugm-3,7.000,R,ugm-3 (BAM)
08-01-2014,02:00,26.561,R,ugm-3 (Ref.eq),0.78611,R,ugm-3,1.54960,R,ugm-3,2.75496,R,ugm-3,7.000,R,ugm-3 (BAM)
08-01-2014,03:00,25.747,R,ugm-3 (Ref.eq),0.37419,R,ugm-3,0.59813,R,ugm-3,1.17188,R,ugm-3,9.000,R,ugm-3 (BAM)
08-01-2014,04:00,26.358,R,ugm-3 (Ref.eq),0.59870,R,ugm-3,0.78126,R,ugm-3,1.69926,R,ugm-3,7.000,R,ugm-3 (BAM)
08-01-2014,05:00,24.934,R,ugm-3 (Ref.eq),0.82384,R,ugm-3,2.48816,R,ugm-3,3.75137,R,ugm-3,8.000,R,ugm-3 (BAM)
08-01-2014,06:00,25.747,R,ugm-3 (Ref.eq),1.79736,R,ugm-3,3.39851,R,ugm-3,6.15443,R,ugm-3,6.000,R,ugm-3 (BAM)
08-01-2014,07:00,24.731,R,ugm-3 (Ref.eq),6.92875,R,ugm-3,17.63038,R,ugm-3,28.25432,R,ugm-3,6.000,R,ugm-3 (BAM)
08-01-2014,08:00,31.037,R,ugm-3 (Ref.eq),91.90294,R,ugm-3,99.71106,R,ugm-3,240.62693,R,ugm-3,17.000,R,ugm-3 (BAM)
08-01-2014,09:00,34.292,R,ugm-3 (Ref.eq),136.46834,R,ugm-3,127.27831,R,ugm-3,336.52685,R,ugm-3,16.000,R,ugm-3 (BAM)
08-01-2014,10:00,34.699,R,ugm-3 (Ref.eq),41.53197,R,ugm-3,55.13785,R,ugm-3,118.81932,R,ugm-3,11.000,R,ugm-3 (BAM)
08-01-2014,11:00,28.596,R,ugm-3 (Ref.eq),40.67071,R,ugm-3,59.21291,R,ugm-3,121.57380,R,ugm-3,10.000,R,ugm-3 (BAM)
08-01-2014,12:00,22.086,R,ugm-3 (Ref.eq),31.45815,R,ugm-3,51.53279,R,ugm-3,99.76795,R,ugm-3,9.000,R,ugm-3 (BAM)
08-01-2014,13:00,27.171,R,ugm-3 (Ref.eq),50.59517,R,ugm-3,74.24277,R,ugm-3,151.82094,R,ugm-3,9.000,R,ugm-3 (BAM)
08-01-2014,14:00,22.492,R,ugm-3 (Ref.eq),65.05106,R,ugm-3,87.36539,R,ugm-3,187.10896,R,ugm-3,9.000,R,ugm-3 (BAM)
08-01-2014,15:00,19.441,R,ugm-3 (Ref.eq),38.16177,R,ugm-3,65.40463,R,ugm-3,123.91853,R,ugm-3,9.000,R,ugm-3 (BAM)
08-01-2014,16:00,16.186,R,ugm-3 (Ref.eq),35.24059,R,ugm-3,71.75939,R,ugm-3,125.79421,R,ugm-3,9.000,R,ugm-3 (BAM)
08-01-2014,17:00,22.086,R,ugm-3 (Ref.eq),33.06873,R,ugm-3,72.68600,R,ugm-3,123.39068,R,ugm-3,15.000,R,ugm-3 (BAM)
08-01-2014,18:00,22.696,R,ugm-3 (Ref.eq),39.84687,R,ugm-3,75.30660,R,ugm-3,136.40428,R,ugm-3,16.000,R,ugm-3 (BAM)
08-01-2014,19:00,20.662,R,ugm-3 (Ref.eq),15.46714,R,ugm-3,43.40180,R,ugm-3,67.11775,R,ugm-3,6.000,R,ugm-3 (BAM)
08-01-2014,20:00,15.983,R,ugm-3 (Ref.eq),6.92813,R,ugm-3,25.54431,R,ugm-3,36.16729,R,ugm-3,2.000,R,ugm-3 (BAM)
08-01-2014,21:00,20.051,R,ugm-3 (Ref.eq),12.24630,R,ugm-3,33.86177,R,ugm-3,52.63917,R,ugm-3,2.000,R,ugm-3 (BAM)
08-01-2014,22:00,19.238,R,ugm-3 (Ref.eq),7.11554,R,ugm-3,26.78122,R,ugm-3,37.69155,R,ugm-3,8.000,R,ugm-3 (BAM)
08-01-2014,23:00,15.779,R,ugm-3 (Ref.eq),4.23178,R,ugm-3,13.32439,R,ugm-3,19.81302,R,ugm-3,6.000,R,ugm-3 (BAM)
08-01-2014,24:00,15.372,R,ugm-3 (Ref.eq),2.43442,R,ugm-3,11.80108,R,ugm-3,15.53380,R,ugm-3,3.000,R,ugm-3 (BAM)
09-01-2014,01:00,14.965,R,ugm-3 (Ref.eq),2.39482,R,ugm-3,5.86309,R,ugm-3,9.53509,R,ugm-3,3.000,R,ugm-3 (BAM)
09-01-2014,02:00,13.338,R,ugm-3 (Ref.eq),1.19741,R,ugm-3,5.19865,R,ugm-3,7.03465,R,ugm-3,4.000,R,ugm-3 (BAM)
09-01-2014,03:00,9.269,R,ugm-3 (Ref.eq),0.89806,R,ugm-3,2.31604,R,ugm-3,3.69304,R,ugm-3,4.000,R,ugm-3 (BAM)
09-01-2014,04:00,8.862,R,ugm-3 (Ref.eq),0.44903,R,ugm-3,2.06693,R,ugm-3,2.75543,R,ugm-3,2.000,R,ugm-3 (BAM)
09-01-2014,05:00,7.235,R,ugm-3 (Ref.eq),0.41161,R,ugm-3,2.82763,R,ugm-3,3.45876,R,ugm-3,4.000,R,ugm-3 (BAM)
09-01-2014,06:00,3.369,R,ugm-3 (Ref.eq),0.74838,R,ugm-3,6.17977,R,ugm-3,7.32727,R,ugm-3,5.000,R,ugm-3 (BAM)
09-01-2014,07:00,3.572,R,ugm-3 (Ref.eq),2.58191,R,ugm-3,14.44750,R,ugm-3,18.40638,R,ugm-3,4.000,R,ugm-3 (BAM)
09-01-2014,08:00,6.217,R,ugm-3 (Ref.eq),9.80378,R,ugm-3,34.55888,R,ugm-3,49.59113,R,ugm-3,3.000,R,ugm-3 (BAM)
09-01-2014,09:00,13.134,R,ugm-3 (Ref.eq),14.74309,R,ugm-3,49.96311,R,ugm-3,72.56886,R,ugm-3,5.000,R,ugm-3 (BAM)
09-01-2014,10:00,17.407,R,ugm-3 (Ref.eq),10.17797,R,ugm-3,35.50939,R,ugm-3,51.11539,R,ugm-3,5.000,R,ugm-3 (BAM)
09-01-2014,11:00,16.389,R,ugm-3 (Ref.eq),10.70183,R,ugm-3,27.67196,R,ugm-3,44.08121,R,ugm-3,6.000,R,ugm-3 (BAM)
09-01-2014,12:00,15.575,R,ugm-3 (Ref.eq),9.01798,R,ugm-3,26.26771,R,ugm-3,40.09508,R,ugm-3,7.000,R,ugm-3 (BAM)
09-01-2014,13:00,17.610,R,ugm-3 (Ref.eq),11.33796,R,ugm-3,25.28947,R,ugm-3,42.67409,R,ugm-3,4.000,R,ugm-3 (BAM)
09-01-2014,14:00,11.914,R,ugm-3 (Ref.eq),10.17797,R,ugm-3,22.96434,R,ugm-3,38.57034,R,ugm-3,6.000,R,ugm-3 (BAM)
09-01-2014,15:00,15.169,R,ugm-3 (Ref.eq),8.41928,R,ugm-3,29.52996,R,ugm-3,42.43933,R,ugm-3,6.000,R,ugm-3 (BAM)
09-01-2014,16:00,16.593,R,ugm-3 (Ref.eq),21.89012,R,ugm-3,47.15269,R,ugm-3,80.71706,R,ugm-3,6.000,R,ugm-3 (BAM)
09-01-2014,17:00,14.151,R,ugm-3 (Ref.eq),29.59843,R,ugm-3,58.25332,R,ugm-3,103.63694,R,ugm-3,7.000,R,ugm-3 (BAM)
09-01-2014,18:00,16.999,R,ugm-3 (Ref.eq),51.67564,R,ugm-3,81.37879,R,ugm-3,160.61366,R,ugm-3,7.000,R,ugm-3 (BAM)
09-01-2014,19:00,14.965,R,ugm-3 (Ref.eq),25.85653,R,ugm-3,60.88444,R,ugm-3,100.53056,R,ugm-3,8.000,R,ugm-3 (BAM)
09-01-2014,20:00,21.272,R,ugm-3 (Ref.eq),56.05366,R,ugm-3,90.96137,R,ugm-3,176.90912,R,ugm-3,10.000,R,ugm-3 (BAM)